Temp
12 13 13 14 13 13 13 13 14 15 17 16 14 15 16 17 18 15 22 24 23 22 23 24 26 26 27 29 27 29 28 29 30 30 27 26 24 22 23 28 27 28 30 28 26
11 11 12 13 13 13 13 13 14 14 16 17 16 13 15 18 16 21 23 23 23 22 25 27 28 28 30 30 28 28 29 30 32 31 28 26 25 23 25 26 27 28 29 26 26
11 10 11 12 11 12 13 13 13 14 16 15 16 14 14 15 22 28 24 23 23 23 26 28 29 30 30 31 27 29 29 31 31 31 30 27 25 24 24 27 27 27 27 27 27
11 11 9 10 12 11 12 12 13 13 15 16 14 17 13 16 29 25 23 23 23 24 26 28 29 30 31 30 31 29 31 32 32 31 31 29 26 26 26 26 27 26 27 28 28
9 10 10 10 11 11 11 12 13 14 15 16 14 15 14 23 28 22 22 22 22 25 27 29 29 31 31 31 29 30 32 32 32 32 31 29 28 27 26 26 26 25 28 28 29
10 11 11 12 11 11 10 13 15 15 16 15 16 13 18 27 24 22 22 23 24 26 28 29 30 31 32 31 31 32 32 32 33 33 30 30 28 28 24 25 25 27 28 29 29
10 9 11 11 11 10 10 11 16 16 16 16 16 13 22 26 23 23 23 25 25 27 29 29 29 30 32 31 32 32 32 32 32 32 30 31 28 28 24 24 24 28 29 29 29
9 9 10 10 10 11 11 13 16 18 17 16 16 16 26 22 23 24 24 24 25 27 28 27 28 31 31 31 31 32 33 33 32 32 30 31 28 28 24 23 25 28 29 29 29
9 9 9 9 10 11 13 11 15 18 17 16 16 19 26 21 24 25 25 26 26 26 27 27 29 30 30 31 32 32 32 32 31 32 31 31 29 27 25 25 26 28 29 29 29
9 9 9 9 10 13 14 13 13 15 14 16 18 22 24 26 26 25 25 26 27 27 28 28 29 29 31 32 32 32 34 34 33 32 33 33 31 27 26 27 27 28 29 29 29
9 9 9 9 13 15 14 16 20 21 20 26 27 26 27 26 25 26 25 26 27 28 28 28 29 29 31 33 33 34 34 33 33 33 34 33 32 29 27 27 27 28 29 30 30
9 9 13 15 17 18 15 24 22 21 25 25 25 25 26 27 26 27 26 28 27 27 29 28 29 31 32 31 31 33 33 32 33 33 34 33 32 31 27 27 28 28 27 30 31
9 13 16 17 18 17 20 22 20 20 25 25 26 27 27 27 28 27 28 29 28 28 28 29 31 30 30 30 31 32 33 32 33 32 33 33 31 31 30 27 27 27 29 29 30
14 16 18 18 17 19 22 20 20 20 26 25 26 28 27 29 28 28 28 29 28 28 29 30 30 29 30 30 31 32 32 32 32 33 33 34 30 30 29 27 27 28 27 30 30
18 18 19 19 18 23 21 20 20 22 25 26 27 28 29 29 29 28 29 29 28 29 29 29 29 29 30 31 32 32 32 32 32 33 33 33 34 30 27 27 28 28 27 28 30
20 19 20 19 17 21 20 21 22 25 23 26 27 28 28 29 29 28 28 29 30 29 29 30 31 30 31 31 31 31 31 31 32 34 32 34 34 30 30 28 29 29 30 29 30
20 20 19 18 23 20 20 24 25 24 25 25 26 28 29 28 28 28 28 28 28 27 28 28 29 29 29 30 31 31 32 30 30 31 33 34 33 29 28 28 28 28 29 31 30
21 20 19 18 18 19 22 26 24 23 24 25 25 27 27 28 27 28 27 27 27 28 30 28 26 28 28 30 30 30 32 32 30 31 33 32 31 28 28 28 28 28 29 30 32
21 20 22 21 19 19 26 25 22 21 22 23 26 26 26 26 27 27 27 26 25 26 28 29 26 27 27 28 28 30 31 34 33 35 34 33 28 29 29 27 26 24 24 27 29
21 24 23 21 19 23 26 21 22 21 21 24 26 25 25 26 26 27 26 24 25 25 26 28 26 27 26 27 28 30 32 30 32 31 31 31 29 29 27 25 24 22 22 23 29
22 26 23 21 21 26 24 22 22 21 21 23 23 24 25 23 25 24 23 23 23 25 26 28 28 26 27 27 28 29 30 30 33 32 32 30 30 27 25 22 22 21 20 20 21
25 25 23 21 25 24 23 22 16 22 22 22 22 23 24 24 24 23 22 22 21 24 26 26 29 27 27 25 24 26 28 29 31 30 32 33 27 26 25 23 23 22 20 20 20
24 24 23 24 24 23 22 21 21 22 21 21 21 22 22 23 22 23 23 21 21 23 23 25 27 26 25 26 25 27 26 27 29 31 31 31 25 26 25 24 23 22 22 20 19
24 24 24 24 23 23 22 21 21 20 20 20 21 22 22 22 23 22 22 22 22 22 19 23 26 26 27 26 27 25 25 26 28 30 31 30 24 24 25 24 24 22 23 21 20
23 21 19 22 21 22 22 21 20 20 21 21 20 20 21 22 22 22 22 22 23 21 22 24 24 24 24 24 24 24 25 25 26 27 29 27 26 24 23 23 23 23 22 22 22
23 22 22 20 20 22 20 20 20 20 20 19 19 20 21 20 20 20 22 22 21 23 22 23 22 23 22 22 22 24 24 23 24 25 26 27 24 23 23 23 22 22 21 21 21
19 19 23 15 21 22 20 20 19 19 19 19 19 20 19 18 19 19 20 21 21 21 21 22 22 22 24 21 22 23 24 24 24 24 25 25 24 23 22 21 21 21 21 20 20
Height
807 804 801 799 797 795 793 791 788 786 785 783 780 779 777 776 776 777 772 769 771 774 777 780 781 782 782 777 782 775 787 790 780 778 789 787 794 797 795 791 794 793 790 804 812
806 803 800 797 795 793 791 789 787 785 783 782 779 777 775 774 776 772 766 765 768 772 775 775 776 778 776 773 779 780 784 780 766 768 781 787 792 798 799 797 798 796 798 809 815
804 801 798 795 793 791 788 787 785 783 782 779 779 776 775 775 773 756 760 763 766 771 775 774 775 774 774 769 781 775 787 768 768 768 772 783 794 794 799 796 795 801 804 809 814
801 798 796 793 791 788 786 784 782 780 779 778 776 777 775 777 762 759 759 761 765 772 775 775 774 774 773 776 768 780 767 766 765 768 771 780 787 794 794 796 793 798 803 808 813
799 796 793 791 788 786 783 781 779 777 777 776 775 775 777 767 756 759 759 763 768 771 772 771 773 770 774 768 776 775 767 767 765 765 769 778 783 789 796 797 798 804 805 809 813
796 793 789 786 785 782 780 777 775 774 774 774 775 774 775 760 759 759 763 766 769 770 770 771 769 767 766 769 772 765 765 767 762 763 772 776 784 786 802 800 802 803 806 809 813
795 791 787 783 781 779 777 774 771 770 771 773 774 775 770 759 760 761 765 767 769 769 769 771 771 771 765 772 763 765 771 765 766 767 776 771 790 790 801 802 806 803 806 810 815
793 789 785 781 777 775 772 769 767 766 769 772 773 776 756 762 761 762 765 769 771 770 771 775 773 768 767 765 769 770 766 774 769 767 774 771 799 791 801 805 807 803 806 811 815
790 787 782 778 774 771 769 768 763 764 769 772 776 773 756 761 762 762 764 767 770 773 774 776 773 769 771 773 775 768 777 776 779 764 771 772 791 795 800 804 807 804 804 809 814
787 783 779 775 770 768 768 767 767 770 774 776 774 771 759 755 758 761 764 766 769 771 774 775 771 776 768 767 780 773 761 765 772 771 765 768 783 793 798 798 803 804 803 807 812
782 779 776 772 767 767 769 769 769 770 769 750 750 753 747 755 758 761 762 766 769 770 773 772 777 776 766 759 753 752 757 766 762 762 764 771 778 787 795 800 802 803 803 804 809
779 775 772 770 767 767 769 760 763 765 755 752 754 755 754 752 758 758 761 761 768 774 765 778 777 759 757 763 767 762 764 775 768 765 766 774 779 780 795 799 799 802 807 802 806
776 772 770 769 769 770 768 766 765 764 753 750 748 746 748 752 751 757 757 753 763 767 770 770 761 759 768 772 773 765 764 771 770 769 763 771 788 785 787 800 799 803 800 800 802
773 771 770 769 772 768 765 765 762 761 747 753 748 743 746 741 750 752 753 751 758 767 765 762 755 767 769 770 764 771 758 765 772 773 780 762 801 793 794 803 800 800 804 797 800
772 770 769 768 769 765 766 763 761 759 760 750 745 741 739 743 744 752 750 749 758 759 765 763 763 767 769 764 760 761 761 768 768 771 773 772 772 794 800 807 801 797 802 801 794
770 769 768 768 766 765 763 762 760 758 775 754 742 744 746 741 741 749 754 750 742 756 757 754 748 755 756 755 760 760 769 772 770 767 791 761 764 797 795 802 795 792 788 790 791
770 768 767 766 761 762 761 757 755 759 753 760 753 742 739 746 748 750 755 757 760 772 771 766 764 762 759 763 760 766 769 790 799 794 784 755 773 798 801 801 797 794 788 780 784
769 768 767 765 762 760 757 750 764 769 762 754 756 745 752 747 754 753 758 764 760 758 756 770 790 770 768 762 766 765 758 767 799 788 774 770 787 807 799 795 793 791 787 780 774
767 768 766 765 760 759 751 758 774 777 772 766 754 755 759 756 755 758 761 769 772 764 762 760 783 774 775 767 768 764 766 743 758 745 760 771 800 796 795 799 801 806 802 789 784
768 765 763 762 759 755 750 776 773 777 773 764 756 757 763 760 761 761 766 777 775 771 764 762 785 776 777 771 766 760 751 775 764 785 783 781 798 798 806 812 813 814 810 801 782
766 757 763 761 758 749 761 775 776 777 775 770 768 765 760 774 765 777 783 784 782 775 767 763 764 783 776 778 772 774 769 765 751 758 768 787 791 801 811 821 821 819 816 811 803
762 758 763 761 758 761 769 776 787 777 773 773 773 770 769 769 774 779 788 789 787 779 774 772 761 778 781 788 787 778 771 767 769 777 757 750 808 802 808 816 814 817 819 818 813
764 764 764 758 764 772 778 782 782 778 781 778 780 777 774 776 784 781 783 791 788 783 784 777 772 789 792 787 786 781 784 779 770 760 763 770 812 801 806 814 815 819 817 821 821
766 766 767 768 773 772 778 783 785 786 785 785 784 779 777 778 772 785 786 790 788 787 793 783 778 780 776 778 773 790 789 786 776 769 764 772 807 809 811 815 815 819 817 822 825
771 781 786 779 782 779 779 785 787 789 787 786 790 788 784 784 783 788 785 787 787 792 787 781 791 787 788 790 788 792 793 791 785 783 778 784 797 809 814 819 820 819 821 821 822
774 777 783 787 789 782 789 791 790 793 789 794 795 793 787 793 793 795 790 788 794 790 791 788 799 793 799 800 800 798 797 801 799 795 790 785 809 812 817 819 823 825 827 828 829
788 787 779 799 784 781 792 794 798 797 800 799 799 795 799 804 801 800 797 796 798 797 797 796 798 801 793 805 803 804 792 794 797 799 793 800 804 813 819 824 828 828 830 833 834
Wind_Speed
15 15 15 14 14 14 14 13 12 10 13 12 11 9 7 7 6 5 9 5 11 23 20 17 15 13 12 8 4 4 2 5 6 3 8 6 5 3 3 7 4 5 7 25 29
16 16 16 15 14 14 14 13 13 13 8 12 13 8 6 4 6 13 10 12 15 27 23 21 16 16 9 7 3 4 0 8 9 9 9 9 7 9 5 8 5 9 19 29 29
17 17 17 16 16 15 13 13 13 12 13 6 11 6 3 1 6 3 3 16 22 28 19 16 16 14 8 7 7 3 2 3 10 10 10 10 12 9 6 7 9 16 21 27 28
17 16 17 17 16 15 15 14 13 13 10 10 5 8 4 5 1 3 1 21 28 23 20 16 15 13 10 9 7 5 2 2 7 4 5 7 12 8 9 5 4 14 24 28 23
15 16 16 17 17 17 16 15 13 12 11 7 5 4 3 7 0 4 12 22 26 22 22 17 15 12 12 8 6 9 4 1 2 4 3 10 8 8 9 7 13 20 25 24 21
17 16 17 18 18 18 19 16 13 11 10 6 6 2 5 8 3 9 17 22 22 23 20 15 11 7 9 9 9 4 5 4 4 5 7 6 12 7 8 13 16 21 23 22 21
20 19 18 18 18 19 19 18 13 10 7 7 6 5 6 5 3 14 17 16 20 19 17 15 8 11 6 7 6 5 7 7 6 10 8 10 10 8 14 15 16 21 20 19 19
21 19 19 18 18 18 17 13 9 7 7 7 6 5 1 1 9 16 14 14 12 14 14 10 10 6 10 5 8 11 10 9 10 10 7 6 9 16 15 16 17 20 19 18 18
20 21 20 18 18 16 8 8 6 7 9 7 5 7 7 7 12 14 16 15 14 12 10 8 11 9 7 12 11 10 11 10 10 3 9 10 13 11 16 14 16 18 19 18 17
21 22 22 18 15 12 8 10 13 11 7 5 4 6 5 9 14 14 12 15 14 12 12 10 9 9 11 12 14 15 11 12 12 8 11 6 12 15 15 14 16 17 17 18 17
22 22 19 16 13 1 9 4 5 6 9 5 4 3 14 11 18 13 17 17 12 13 11 14 11 16 17 17 7 12 11 12 10 8 7 7 13 14 15 13 12 16 16 18 18
23 19 14 10 5 8 4 4 6 5 3 9 7 6 4 15 10 16 21 11 15 16 12 10 16 14 12 8 9 11 12 14 10 6 6 9 10 14 14 11 15 15 16 18 19
20 14 9 4 3 2 1 5 7 4 6 7 6 6 10 14 13 21 18 9 16 16 16 14 11 11 14 13 13 13 14 11 13 6 3 12 8 10 15 14 11 14 14 16 20
15 10 5 3 2 2 2 5 8 7 6 7 9 7 9 9 13 23 22 11 7 15 15 11 7 17 17 16 16 16 5 6 9 10 10 14 7 6 6 7 7 9 13 14 19
11 8 4 1 4 4 3 10 2 5 5 5 9 6 12 12 20 17 21 7 12 10 10 10 15 18 17 16 14 5 10 10 8 10 4 13 7 8 9 9 11 12 12 16 15
7 6 4 2 4 4 7 8 5 7 4 6 4 11 14 11 10 15 13 11 3 11 14 6 12 14 12 10 13 8 10 9 8 9 11 10 11 6 5 4 3 2 8 17 18
4 8 6 3 5 8 7 5 6 3 3 4 4 12 15 13 11 19 15 12 8 13 13 11 11 4 4 14 13 14 16 10 11 9 9 12 7 11 8 6 6 6 6 10 21
4 3 7 4 9 5 6 8 2 3 6 2 1 9 11 13 10 11 13 10 5 8 14 12 11 6 2 7 12 19 18 10 13 13 12 6 9 8 8 8 10 11 9 8 13
3 3 4 12 5 3 7 2 5 4 5 6 7 11 11 7 8 9 6 5 5 8 4 11 6 5 3 1 5 19 15 6 6 11 9 13 13 13 8 11 13 14 13 9 1
2 5 9 13 3 7 1 5 4 7 6 4 4 4 10 9 10 7 4 5 3 7 5 2 9 2 3 3 1 7 9 10 9 14 14 10 16 10 7 10 13 14 15 16 11
3 5 10 10 5 1 4 5 6 7 6 6 3 5 8 6 7 3 3 7 6 4 3 2 5 8 6 2 2 6 11 10 8 5 14 10 8 7 9 8 10 12 14 15 18
5 3 15 7 0 2 6 4 2 5 4 4 5 6 6 4 6 4 4 6 8 5 2 3 3 9 8 6 1 3 5 9 11 12 6 6 7 6 11 7 9 12 14 15 17
2 4 12 8 3 7 6 9 10 8 9 4 5 7 2 4 5 7 5 5 6 4 4 4 4 8 9 8 5 4 1 4 8 8 13 10 9 9 11 11 10 12 14 14 17
2 1 5 7 4 6 6 6 6 8 12 8 5 3 4 7 4 9 9 5 6 6 5 5 1 6 1 7 4 7 3 1 8 11 9 4 19 13 11 10 12 11 13 15 15
4 4 3 3 7 8 7 4 6 4 5 7 5 7 3 4 8 6 5 10 8 3 2 3 3 2 7 6 4 2 2 2 1 5 5 18 17 13 10 10 10 11 12 14 15
2 2 4 5 2 6 4 8 8 7 5 7 8 8 4 7 6 7 7 2 4 2 2 1 3 3 1 2 1 5 4 2 2 4 7 11 14 10 9 9 9 9 11 13 14
3 2 3 1 2 3 6 4 6 4 8 8 4 5 9 8 7 6 6 4 5 3 2 1 5 6 5 2 3 8 11 7 6 4 6 9 14 9 9 8 7 8 10 11 12
Wind_Direction
346 344 342 342 340 338 335 333 331 334 329 315 317 316 305 287 274 249 236 212 183 165 153 154 164 168 183 192 239 243 254 86 66 74 113 133 121 44 304 116 80 114 134 145 150
341 338 335 336 336 334 333 330 326 322 325 317 315 323 306 313 255 247 238 203 170 165 168 169 165 168 191 198 170 259 315 67 75 98 134 136 139 135 162 138 113 140 114 147 155
338 336 334 336 332 331 329 326 322 317 316 305 313 319 308 272 260 162 220 182 169 167 175 180 166 185 186 202 153 233 160 71 80 87 127 135 142 147 135 200 163 154 150 154 159
336 338 335 331 327 326 324 319 315 312 309 294 300 291 282 250 212 55 231 170 167 169 174 175 182 191 194 199 166 242 144 8 91 165 120 144 137 146 172 61 142 154 161 156 163
338 337 336 330 327 323 319 314 308 304 300 285 278 283 285 216 268 360 161 163 162 171 178 178 184 198 200 194 163 235 154 187 223 183 53 138 149 121 143 113 128 150 158 160 166
334 335 332 331 325 322 317 310 301 290 286 258 265 205 253 227 23 131 146 154 169 177 179 188 198 195 194 207 219 190 241 272 293 207 147 142 127 123 119 129 140 157 161 164 170
332 329 330 326 322 319 314 307 295 274 256 228 233 211 238 40 122 140 151 162 165 180 178 192 216 203 178 174 213 218 231 173 97 130 152 132 152 125 144 142 160 164 165 168 175
330 328 325 323 320 317 315 318 293 238 207 201 197 232 259 58 147 145 152 150 161 174 182 164 202 198 232 76 209 217 229 187 138 152 145 241 118 129 146 146 162 174 169 175 180
335 328 324 321 319 316 332 31 21 159 154 162 177 248 140 127 167 155 158 161 157 156 163 175 188 213 180 205 188 204 189 161 145 157 156 247 125 144 151 161 165 184 175 180 181
332 328 322 322 321 320 135 100 89 78 117 184 246 227 173 184 154 155 158 165 168 148 153 183 194 197 214 205 194 186 185 170 141 164 179 149 110 149 164 181 170 178 184 182 184
332 327 324 323 327 152 139 142 186 168 207 290 131 302 131 121 144 166 153 158 176 188 182 188 197 202 190 208 331 180 186 157 109 152 182 150 138 154 167 180 181 184 191 184 187
333 330 331 338 54 129 152 298 25 349 250 218 240 252 205 165 157 160 163 154 173 185 180 174 216 192 185 172 190 197 167 142 135 115 223 160 162 149 156 181 187 189 189 192 189
335 337 340 349 130 141 268 18 318 241 249 147 192 198 175 196 166 165 190 163 182 182 195 199 190 157 193 185 192 195 190 164 160 154 180 152 142 168 164 150 193 176 209 195 196
347 346 354 130 149 193 201 326 317 196 242 124 182 167 170 212 160 169 193 171 176 193 194 218 142 183 189 192 207 178 226 161 172 198 186 217 124 111 161 207 183 192 194 218 191
11 7 9 187 320 263 4 331 235 223 180 147 137 125 155 210 133 177 192 203 182 168 196 179 182 188 190 192 205 190 167 196 193 219 198 202 232 99 126 171 202 202 191 213 228
17 6 355 320 249 267 302 306 223 232 100 140 146 173 174 161 171 151 187 234 187 168 220 133 194 193 189 178 202 123 174 174 197 215 220 185 244 99 91 51 127 203 253 203 216
71 43 12 268 324 304 295 221 220 353 186 97 117 193 173 150 144 166 182 189 186 178 183 161 163 132 268 197 195 197 179 173 195 201 226 150 217 81 93 53 18 6 338 246 194
235 33 354 309 310 294 229 232 34 78 22 84 150 189 144 146 140 150 167 154 76 285 167 169 164 188 228 242 192 205 204 190 191 196 172 150 158 111 100 72 44 24 19 353 207
302 245 337 339 311 266 253 1 26 12 357 346 172 169 141 136 146 131 105 96 33 351 278 190 106 132 67 296 274 193 222 319 272 205 200 148 87 123 105 59 42 31 22 7 252
305 250 23 343 299 245 311 76 84 8 335 292 183 278 160 133 155 137 124 41 59 24 318 89 134 166 104 208 175 274 213 204 236 188 212 161 169 105 90 44 36 25 21 11 23
257 253 17 344 274 324 70 72 71 34 357 6 40 125 110 115 101 92 58 85 18 12 342 270 260 140 190 299 172 175 206 236 257 275 217 156 147 93 81 62 47 35 31 29 24
305 279 358 334 261 39 63 28 297 29 23 76 55 60 76 121 112 104 124 32 350 323 79 22 269 168 111 124 182 296 323 256 225 199 254 260 101 112 98 75 75 61 48 43 37
43 29 13 286 82 95 114 96 54 42 35 43 51 37 57 105 120 119 112 70 13 36 26 2 192 159 167 168 179 211 151 257 269 285 209 233 125 137 117 101 70 68 70 54 50
292 121 69 54 38 86 106 54 101 43 55 54 51 85 122 79 86 147 130 85 63 74 3 272 104 322 191 67 77 160 142 321 268 233 206 219 129 140 118 96 86 74 72 76 61
352 64 1 48 52 78 85 82 81 79 64 25 60 44 19 126 113 125 131 138 91 50 53 338 143 59 62 60 75 114 114 48 91 343 274 133 139 129 113 97 76 76 67 61 57
52 102 92 81 82 98 117 70 75 88 1 53 84 50 54 84 360 138 138 88 49 72 72 0 142 152 113 56 22 235 180 149 121 106 98 130 115 118 119 109 88 68 61 56 50
48 81 309 157 104 71 46 64 81 92 65 60 88 103 84 64 63 72 52 67 74 19 82 323 157 205 191 167 262 236 217 198 139 163 155 180 115 145 130 101 68 62 55 44 38